GW2632 Weather Reports


Display with metric or nautical units.
time (UTC)temp
F
wind
direction
speed
MPH
gust
MPH
rain 1hr
in
rain 24hr
in
rain mn
in
humidity
%
barometer
mb
20260903015548 80 3 6.0 6.0 0.00 0.01 0.01 87 1015.6
20260903015043 80 107 0.0 3.0 0.00 0.01 0.01 86 1015.9
20260903014543 80 341 4.0 5.0 0.00 0.01 0.01 87 1015.8
20260903014038 80 311 0.0 2.0 0.00 0.01 0.01 89 1015.4
20260903013537 80 318 1.0 3.0 0.00 0.01 0.01 89 1015.4
20260903013032 80 77 0.0 2.0 0.00 0.01 0.01 89 1015.3
20260903012531 80 71 0.0 2.0 0.00 0.01 0.01 89 1015.2
20260903012031 80 230 1.0 3.0 0.00 0.01 0.01 89 1015.2
20260903011531 80 32 4.0 4.0 0.00 0.01 0.01 88 1015.2
20260903011026 80 8 0.0 2.0 0.00 0.01 0.01 88 1014.8
20260903010521 80 131 0.0 2.0 0.00 0.01 0.01 88 1015.1
20260903010019 80 279 0.0 2.0 0.00 0.01 0.01 88 1015.0
20260903005514 80 342 3.0 3.0 0.00 0.01 0.01 88 1014.9
20260903005010 80 209 1.0 3.0 0.00 0.01 0.01 88 1015.0
20260903004509 81 12 2.0 3.0 0.00 0.01 0.01 88 1015.2
20260903004005 81 355 0.0 2.0 0.00 0.01 0.01 87 1015.0
20260903003500 81 66 2.0 4.0 0.00 0.01 0.01 88 1015.0
20260903002955 81 37 0.0 1.0 0.00 0.01 0.01 87 1015.2
20260903002455 81 226 0.0 2.0 0.00 0.01 0.01 87 1015.0
20260903001955 81 219 0.0 2.0 0.00 0.01 0.01 87 1015.0
20260903001450 81 69 2.0 2.0 0.00 0.01 0.01 87 1015.2
20260903000949 81 89 0.0 2.0 0.00 0.01 0.01 87 1015.0
20260903000447 81 25 0.0 3.0 0.00 0.01 0.01 87 1015.1
20260902235943 81 131 0.0 2.0 0.00 0.01 0.01 87 1015.0
20260902235439 82 260 0.0 2.0 0.00 0.01 0.01 87 1015.1
20260902234938 82 67 2.0 3.0 0.02 0.01 0.01 86 1015.0
20260902234433 82 319 0.0 1.0 0.05 0.01 0.01 85 1014.9
20260902233927 82 273 2.0 3.0 0.02 0.01 0.01 85 1015.0
20260902233427 82 349 2.0 2.0 0.00 0.00 0.00 84 1014.7
20260902232926 82 223 1.0 3.0 0.00 0.00 0.00 83 1014.7
20260902232421 82 117 2.0 6.0 0.00 0.00 0.00 83 1014.5
20260902231920 82 258 2.0 2.0 0.00 0.00 0.00 83 1014.6
20260902231416 82 126 0.0 4.0 0.00 0.00 0.00 83 1014.5
20260902230910 82 295 1.0 4.0 0.00 0.00 0.00 83 1014.4
20260902230410 82 288 1.0 4.0 0.00 0.00 0.00 82 1014.3
20260902225904 83 45 5.0 5.0 0.00 0.00 0.00 81 1014.2
20260902225359 83 116 2.0 2.0 0.00 0.00 0.00 80 1014.2
20260902224857 83 118 0.0 3.0 0.00 0.00 0.00 81 1014.2
20260902224352 83 136 2.0 3.0 0.00 0.00 0.00 80 1014.1
20260902223849 83 53 3.0 5.0 0.00 0.00 0.00 81 1014.2
20260902223348 83 160 2.0 4.0 0.00 0.00 0.00 80 1014.2
20260902222843 84 132 4.0 5.0 0.00 0.00 0.00 79 1014.1
20260902222342 84 344 2.0 4.0 0.00 0.00 0.00 79 1014.1
20260902221836 84 79 2.0 6.0 0.00 0.00 0.00 78 1014.1
20260902221335 85 81 2.0 6.0 0.00 0.00 0.00 77 1013.9
20260902220831 85 183 0.0 3.0 0.00 0.00 0.00 77 1014.0
20260902220331 85 48 0.0 2.0 0.00 0.00 0.00 78 1013.8
20260902215827 85 82 0.0 1.0 0.00 0.00 0.00 77 1013.8
20260902215327 85 294 1.0 2.0 0.00 0.00 0.00 77 1013.8
20260902214823 85 35 0.0 3.0 0.00 0.00 0.00 76 1014.1
20260902214321 85 269 0.0 3.0 0.00 0.00 0.00 76 1014.1
20260902213817 85 177 0.0 3.0 0.00 0.00 0.00 77 1014.2
20260902213312 85 109 2.0 3.0 0.00 0.00 0.00 76 1014.1
20260902212811 85 53 2.0 2.0 0.00 0.00 0.00 76 1014.1
20260902212308 85 134 1.0 2.0 0.00 0.00 0.00 75 1014.3
20260902211804 85 332 1.0 2.0 0.00 0.00 0.00 76 1014.6
20260902211300 85 135 2.0 3.0 0.00 0.00 0.00 75 1014.5
20260902210800 85 131 1.0 2.0 0.00 0.00 0.00 76 1014.5
20260902210254 85 136 2.0 4.0 0.00 0.00 0.00 75 1014.4
20260902205752 85 165 1.0 2.0 0.00 0.00 0.00 76 1014.5
20260902205248 85 139 1.0 3.0 0.00 0.00 0.00 75 1014.4
20260902204743 85 342 2.0 4.0 0.00 0.00 0.00 74 1014.5
20260902204239 85 87 2.0 3.0 0.00 0.00 0.00 76 1014.5
20260902203738 85 44 2.0 5.0 0.00 0.00 0.00 74 1013.8
20260902203233 85 49 2.0 5.0 0.00 0.00 0.00 76 1014.0
20260902202728 85 128 2.0 4.0 0.00 0.00 0.00 75 1013.9
20260902202225 85 222 0.0 4.0 0.00 0.00 0.00 77 1014.1
20260902201721 85 92 3.0 6.0 0.00 0.00 0.00 75 1013.9
20260902201219 85 160 3.0 8.0 0.00 0.00 0.00 75 1014.5
20260902200715 86 208 1.0 3.0 0.00 0.00 0.00 73 1014.7
20260902200211 87 224 1.0 5.0 0.00 0.00 0.00 72 1014.5
20260902195706 87 171 2.0 4.0 0.00 0.00 0.00 69 1014.3
20260902195205 88 183 0.0 6.0 0.00 0.00 0.00 70 1014.7
20260902194704 89 136 1.0 3.0 0.00 0.00 0.00 68 1014.2
20260902194200 89 210 0.0 2.0 0.00 0.00 0.00 68 1014.3
20260902193655 89 264 2.0 3.0 0.00 0.00 0.00 69 1014.5
20260902193151 90 75 2.0 2.0 0.00 0.00 0.00 71 1014.8
20260902192649 89 170 1.0 6.0 0.00 0.00 0.00 70 1015.0
20260902192149 89 321 2.0 3.0 0.00 0.00 0.00 68 1014.8
20260902191648 89 347 2.0 5.0 0.00 0.00 0.00 67 1014.6
20260902191143 89 2 4.0 8.0 0.00 0.00 0.00 67 1014.5
20260902190639 90 279 1.0 9.0 0.00 0.00 0.00 65 1014.6
20260902190134 90 273 2.0 6.0 0.00 0.00 0.00 69 1014.9
20260902185629 89 312 2.0 5.0 0.00 0.00 0.00 68 1014.8
20260902185125 89 65 3.0 5.0 0.00 0.00 0.00 66 1014.8
20260902184620 89 190 2.0 5.0 0.00 0.00 0.00 66 1014.8
20260902184116 89 153 7.0 8.0 0.00 0.00 0.00 67 1015.2
20260902183612 90 192 2.0 6.0 0.00 0.00 0.00 65 1015.0
20260902183108 90 147 3.0 9.0 0.00 0.00 0.00 66 1015.0
20260902182604 90 169 4.0 5.0 0.00 0.00 0.00 67 1015.1
20260902182100 90 126 5.0 9.0 0.00 0.00 0.00 64 1015.2
20260902181556 90 167 6.0 6.0 0.00 0.00 0.00 65 1015.2
20260902181055 90 78 2.0 6.0 0.00 0.00 0.00 67 1015.5
20260902180555 90 300 4.0 4.0 0.00 0.00 0.00 67 1015.3
20260902180051 89 187 0.0 4.0 0.00 0.00 0.00 68 1015.2
20260902175551 89 29 2.0 4.0 0.00 0.00 0.00 67 1015.4
20260902175047 90 95 2.0 7.0 0.00 0.00 0.00 66 1015.5
20260902174543 92 8 3.0 7.0 0.00 0.00 0.00 62 1015.5
20260902174038 91 225 0.0 6.0 0.00 0.00 0.00 65 1015.4
20260902173538 89 134 3.0 5.0 0.00 0.00 0.00 64 1015.6
20260902173033 89 332 1.0 3.0 0.00 0.00 0.00 69 1015.3
20260902172533 89 279 2.0 5.0 0.00 0.00 0.00 67 1015.5
20260902172028 90 292 1.0 2.0 0.00 0.00 0.00 68 1015.3
20260902171524 88 68 3.0 5.0 0.00 0.00 0.00 69 1015.5
20260902171019 88 228 0.0 2.0 0.00 0.00 0.00 69 1015.6
20260902170514 88 134 2.0 3.0 0.00 0.00 0.00 67 1015.9
20260902170010 89 138 1.0 3.0 0.00 0.00 0.00 68 1016.1
20260902165510 89 61 1.0 2.0 0.00 0.00 0.00 68 1016.0
20260902165010 91 89 3.0 5.0 0.00 0.00 0.00 66 1015.9
20260902164505 90 54 3.0 3.0 0.00 0.00 0.00 65 1015.9
20260902164004 90 150 1.0 2.0 0.00 0.00 0.00 68 1016.0
20260902163500 90 211 1.0 4.0 0.00 0.00 0.00 66 1016.1
20260902162957 88 184 4.0 5.0 0.00 0.00 0.00 67 1016.0
20260902162452 87 159 3.0 5.0 0.00 0.00 0.00 67 1016.2
20260902161953 90 42 3.0 5.0 0.00 0.00 0.00 65 1016.2
20260902161448 91 135 2.0 3.0 0.00 0.00 0.00 67 1016.2
20260902160943 91 60 1.0 3.0 0.00 0.00 0.00 63 1016.2
20260902160439 90 238 0.0 2.0 0.00 0.00 0.00 64 1016.3
20260902155937 91 6 1.0 5.0 0.00 0.00 0.00 65 1016.5
20260902155433 90 50 3.0 3.0 0.00 0.00 0.00 66 1016.2
20260902154926 89 306 2.0 3.0 0.00 0.00 0.00 66 1016.6
20260902154422 90 190 0.0 3.0 0.00 0.00 0.00 64 1016.5
20260902153921 91 155 1.0 3.0 0.00 0.00 0.00 66 1016.6
20260902153420 90 111 0.0 5.0 0.00 0.00 0.00 67 1016.5
20260902152916 90 11 0.0 5.0 0.00 0.00 0.00 68 1016.6
20260902152412 89 271 1.0 4.0 0.00 0.00 0.00 66 1016.6
20260902151908 89 94 2.0 2.0 0.00 0.00 0.00 67 1016.8
20260902151403 88 233 4.0 4.0 0.00 0.00 0.00 70 1016.5
20260902150903 89 238 0.0 4.0 0.00 0.00 0.00 69 1016.8
20260902150359 89 259 1.0 3.0 0.00 0.00 0.00 68 1016.7
20260902145858 89 48 2.0 2.0 0.00 0.00 0.00 69 1016.7
20260902145354 88 131 2.0 3.0 0.00 0.00 0.00 69 1016.6
20260902144849 89 184 2.0 5.0 0.00 0.00 0.00 69 1016.7
20260902144345 88 105 1.0 3.0 0.00 0.00 0.00 72 1016.6
20260902143844 87 107 2.0 6.0 0.00 0.00 0.00 72 1016.6
20260902143339 86 175 3.0 4.0 0.00 0.00 0.00 72 1016.8
20260902142836 87 309 0.0 4.0 0.00 0.00 0.00 72 1016.7
20260902142331 88 78 2.0 3.0 0.00 0.00 0.00 72 1016.7
20260902141826 87 162 0.0 2.0 0.00 0.00 0.00 72 1016.6
20260902141322 87 295 4.0 5.0 0.00 0.00 0.00 73 1016.3
20260902140821 86 259 3.0 3.0 0.00 0.00 0.00 74 1016.3
20260902140317 87 10 3.0 4.0 0.00 0.00 0.00 73 1016.3
20260902135815 87 274 2.0 3.0 0.00 0.00 0.00 74 1016.6
20260902135312 88 72 3.0 4.0 0.00 0.00 0.00 73 1016.4
20260902134811 88 300 2.0 2.0 0.00 0.00 0.00 75 1016.4
20260902134306 88 176 0.0 2.0 0.00 0.00 0.00 77 1016.5
20260902133802 87 247 4.0 4.0 0.00 0.00 0.00 80 1016.6
20260902133301 86 271 3.0 4.0 0.00 0.00 0.00 81 1016.4
20260902132756 85 187 3.0 3.0 0.00 0.00 0.00 82 1016.5
20260902132252 84 291 1.0 4.0 0.00 0.00 0.00 83 1016.4
20260902131747 83 319 0.0 5.0 0.00 0.00 0.00 82 1016.6
20260902131244 84 95 2.0 4.0 0.00 0.00 0.00 81 1016.8
20260902130743 85 57 2.0 4.0 0.00 0.00 0.00 81 1016.5
20260902130239 85 151 0.0 2.0 0.00 0.00 0.00 83 1016.7
20260902125734 84 151 1.0 1.0 0.00 0.00 0.00 85 1016.7
20260902125230 83 247 1.0 2.0 0.00 0.00 0.00 86 1016.8
20260902124726 83 324 1.0 3.0 0.00 0.00 0.00 87 1016.6
20260902124222 82 228 0.0 2.0 0.00 0.00 0.00 90 1016.6
20260902123717 82 92 2.0 3.0 0.00 0.00 0.00 91 1016.3
20260902123213 81 321 1.0 3.0 0.00 0.00 0.00 94 1016.3
20260902122712 80 271 2.0 2.0 0.00 0.00 0.00 97 1016.3
20260902122208 79 207 0.0 2.0 0.00 0.00 0.00 99 1016.5
20260902121708 78 281 2.0 3.0 0.00 0.00 0.00 99 1016.5
20260902121202 78 302 1.0 2.0 0.00 0.00 0.00 99 1016.6
20260902120658 77 299 2.0 3.0 0.00 0.00 0.00 99 1016.4
20260902120155 77 302 1.0 2.0 0.00 0.00 0.00 99 1016.5
20260902115654 77 307 1.0 3.0 0.00 0.00 0.00 99 1016.3
20260902115150 77 302 0.0 0.0 0.00 0.00 0.00 99 1016.2
20260902114646 76 309 1.0 2.0 0.00 0.00 0.00 99 1016.2
20260902114141 76 240 0.0 2.0 0.00 0.00 0.00 99 1016.4
20260902113637 76 294 0.0 1.0 0.00 0.00 0.00 99 1016.2
20260902113132 76 311 0.0 2.0 0.00 0.00 0.00 99 1016.4
20260902112626 76 293 0.0 0.0 0.00 0.00 0.00 99 1016.2
20260902112124 76 293 0.0 0.0 0.00 0.00 0.00 99 1016.0
20260902111619 76 282 1.0 1.0 0.00 0.00 0.00 99 1016.2
20260902111115 76 305 0.0 0.0 0.00 0.00 0.00 99 1016.0
20260902110605 75 311 0.0 0.0 0.00 0.00 0.00 99 1016.2
20260902110101 76 325 0.0 0.0 0.00 0.00 0.00 98 1015.8
20260902105601 76 319 0.0 0.0 0.00 0.00 0.00 99 1016.1
20260902105101 76 283 0.0 0.0 0.00 0.00 0.00 99 1015.9
20260902104557 76 304 0.0 0.0 0.00 0.00 0.00 98 1016.0
20260902104057 76 323 0.0 0.0 0.00 0.00 0.00 98 1015.9
20260902103552 76 309 0.0 0.0 0.00 0.00 0.00 98 1015.9
20260902103047 76 309 0.0 0.0 0.00 0.00 0.00 99 1015.7
20260902102544 76 304 0.0 0.0 0.00 0.00 0.00 98 1015.6
20260902102040 76 347 0.0 0.0 0.00 0.00 0.00 98 1015.5
20260902101536 76 347 0.0 0.0 0.00 0.00 0.00 98 1015.7
20260902101034 76 307 0.0 1.0 0.00 0.00 0.00 99 1015.8
20260902100534 76 328 0.0 1.0 0.00 0.00 0.00 98 1016.1
20260902100034 76 299 0.0 1.0 0.00 0.00 0.00 99 1015.8
20260902095534 76 311 0.0 2.0 0.00 0.00 0.00 99 1015.6
20260902095033 76 297 0.0 1.0 0.00 0.00 0.00 99 1015.6
20260902094529 76 311 0.0 0.0 0.00 0.00 0.00 98 1015.7
20260902094025 76 301 0.0 1.0 0.00 0.00 0.00 99 1015.6
20260902093519 76 293 0.0 0.0 0.00 0.00 0.00 99 1015.6
20260902093018 76 12 0.0 0.0 0.00 0.00 0.00 98 1015.3
20260902092514 76 301 1.0 1.0 0.00 0.00 0.00 98 1015.3
20260902092008 76 274 1.0 2.0 0.00 0.00 0.00 98 1015.2
20260902091504 76 341 0.0 1.0 0.00 0.00 0.00 98 1015.1
20260902091000 76 307 0.0 2.0 0.00 0.00 0.00 98 1015.0
20260902090455 76 342 2.0 2.0 0.00 0.00 0.00 98 1015.2
20260902085954 76 303 2.0 2.0 0.00 0.00 0.00 98 1015.1
20260902085449 76 295 2.0 3.0 0.00 0.00 0.00 99 1015.1
20260902084944 76 267 0.0 2.0 0.00 0.00 0.00 98 1014.8
20260902084441 75 327 0.0 1.0 0.00 0.00 0.00 98 1015.3
20260902083937 75 319 0.0 0.0 0.00 0.00 0.00 98 1014.9
20260902083436 75 288 0.0 0.0 0.00 0.00 0.00 98 1015.2
20260902082931 75 328 0.0 0.0 0.00 0.00 0.00 98 1015.2
20260902082426 75 345 0.0 2.0 0.00 0.00 0.00 98 1015.2
20260902081923 75 256 0.0 0.0 0.00 0.00 0.00 98 1015.2
20260902081419 75 327 0.0 1.0 0.00 0.00 0.00 98 1015.3
20260902080914 75 288 0.0 1.0 0.00 0.00 0.00 98 1015.3
20260902080410 75 307 0.0 0.0 0.00 0.00 0.00 98 1015.2
20260902075909 75 288 0.0 1.0 0.00 0.00 0.00 98 1015.1
20260902075406 75 307 0.0 0.0 0.02 0.00 0.00 98 1015.3
20260902074901 75 312 0.0 0.0 0.00 0.00 0.00 98 1015.3
20260902074357 75 292 0.0 1.0 0.00 0.00 0.00 98 1015.3
20260902073851 75 315 0.0 2.0 0.00 0.00 0.00 98 1015.3
20260902073348 75 293 0.0 0.0 0.00 0.00 0.00 98 1015.4
20260902072843 75 288 0.0 1.0 0.00 0.00 0.00 98 1015.6
20260902072339 75 293 0.0 2.0 0.00 0.00 0.00 98 1015.8
20260902071836 75 309 0.0 2.0 0.00 0.00 0.00 97 1015.5
20260902071335 75 329 0.0 0.0 0.00 0.00 0.00 97 1015.9
20260902070832 75 234 0.0 0.0 0.00 0.00 0.00 98 1015.5
20260902070331 75 315 0.0 0.0 0.00 0.00 0.00 98 1015.6
20260902065830 75 58 0.0 0.0 0.00 0.00 0.00 97 1015.5
20260902065326 75 37 0.0 0.0 0.00 0.00 0.00 97 1015.6
20260902064821 75 315 0.0 0.0 0.00 0.00 0.00 97 1015.4
20260902064317 75 349 0.0 1.0 0.00 0.00 0.00 97 1015.8
20260902063812 75 328 0.0 0.0 0.00 0.00 0.00 97 1015.7
20260902063312 75 312 0.0 0.0 0.00 0.00 0.00 97 1015.9
20260902062807 76 328 0.0 0.0 0.00 0.00 0.00 97 1015.7
20260902062305 76 315 0.0 0.0 0.00 0.00 0.00 97 1015.6
20260902061800 76 308 0.0 0.0 0.00 0.00 0.00 97 1015.8
20260902061256 76 312 0.0 1.0 0.00 0.00 0.00 97 1015.9
20260902060753 76 319 0.0 0.0 0.00 0.00 0.00 96 1015.7
20260902060249 76 23 0.0 0.0 0.00 0.00 0.00 97 1015.6
20260902055744 76 315 0.0 0.0 0.00 0.00 0.00 96 1015.7
20260902055240 76 309 0.0 1.0 0.00 0.00 0.00 96 1016.0
20260902054735 76 273 0.0 1.0 0.00 0.00 0.00 96 1016.0
20260902054230 76 315 0.0 1.0 0.00 0.00 0.00 96 1015.9
20260902053726 76 25 0.0 0.0 0.00 0.00 0.00 96 1015.9
20260902053225 76 12 0.0 0.0 0.00 0.00 0.00 96 1016.0
20260902052725 76 311 0.0 0.0 0.00 0.00 0.00 96 1016.1
20260902052221 76 301 0.0 2.0 0.00 0.00 0.00 96 1015.8
20260902051719 76 284 0.0 2.0 0.00 0.00 0.00 96 1015.7
20260902051214 77 294 0.0 1.0 0.00 0.00 0.00 95 1015.8
20260902050709 77 210 0.0 0.0 0.00 0.00 0.00 95 1015.9
20260902050159 77 308 0.0 0.0 0.00 0.00 0.00 95 1015.7
20260902045653 77 315 0.0 2.0 0.00 0.00 0.00 95 1015.9
20260902045149 77 311 0.0 1.0 0.00 0.00 0.00 95 1015.8
20260902044650 77 335 0.0 0.0 0.00 0.00 0.00 95 1015.7
20260902044146 77 337 0.0 1.0 0.00 0.00 0.00 95 1015.4
20260902043641 77 315 0.0 1.0 0.00 0.00 0.00 95 1015.6
20260902043136 77 337 0.0 1.0 0.00 0.00 0.00 95 1016.0
20260902042635 77 333 0.0 1.0 0.00 0.00 0.00 95 1016.0
20260902042131 78 325 0.0 0.0 0.00 0.00 0.00 94 1015.9
20260902041630 78 307 0.0 2.0 0.00 0.00 0.00 94 1016.1
20260902041125 78 317 0.0 1.0 0.00 0.00 0.00 94 1016.3
20260902040625 78 262 1.0 1.0 0.00 0.00 0.00 94 1016.2
20260902040120 78 269 0.0 0.0 0.00 0.00 0.00 94 1016.3
20260902035618 78 316 0.0 2.0 0.00 0.34 0.34 94 1016.0
20260902035114 78 293 0.0 1.0 0.00 0.34 0.34 94 1016.2
20260902034613 78 315 0.0 0.0 0.00 0.34 0.34 94 1016.3
20260902034113 78 311 0.0 1.0 0.00 0.34 0.34 94 1016.3
20260902033612 78 311 0.0 1.0 0.00 0.34 0.34 94 1016.5
20260902033108 78 279 0.0 0.0 0.00 0.34 0.34 93 1016.7
20260902032606 78 319 0.0 0.0 0.00 0.34 0.34 93 1016.7
20260902032101 78 319 0.0 0.0 0.00 0.34 0.34 93 1016.6
20260902031601 78 328 0.0 1.0 0.00 0.34 0.34 92 1016.8
20260902031057 78 224 0.0 0.0 0.00 0.34 0.34 92 1016.7
20260902030552 78 271 0.0 1.0 0.00 0.34 0.34 92 1016.7
20260902030052 78 312 1.0 1.0 0.00 0.34 0.34 91 1016.7
20260902025552 79 238 0.0 0.0 0.00 0.34 0.34 91 1016.7
20260902025047 79 316 1.0 1.0 0.00 0.34 0.34 91 1016.8
20260902024543 79 290 0.0 1.0 0.00 0.34 0.34 91 1016.7
20260902024042 79 311 0.0 1.0 0.00 0.34 0.34 90 1016.8
20260902023538 79 338 0.0 1.0 0.00 0.34 0.34 91 1016.7
20260902023033 79 304 0.0 1.0 0.00 0.34 0.34 90 1016.7
20260902022527 79 300 0.0 1.0 0.00 0.34 0.34 90 1017.0
20260902022023 79 296 0.0 1.0 0.00 0.34 0.34 90 1016.9
20260902021519 79 114 0.0 1.0 0.00 0.34 0.34 90 1016.7
20260902021014 79 253 0.0 2.0 0.00 0.34 0.34 90 1016.8
20260902020509 79 328 0.0 1.0 0.00 0.34 0.34 90 1016.7
20260902020005 79 157 1.0 1.0 0.00 0.34 0.34 90 1016.6